sat.trackr.live / text

‹ back to catalog

STARLINK-37746

NORAD 69230 · 2026-115V

PAYLOAD ACTIVE UNKNOWN

§ Identity

Operator
Country
US
Launch date
2026-05-26
Launch site
AFWTR
Launch vehicle
Mass (kg)
RCS (m²)

Purposes: comms

External: N2YO · Heavens-Above · Gunter

§ Orbital elements

Epoch: 2026-09-19T23:27:56.621088Z

Period
93.91 min
Inclination
97.2842°
Eccentricity
0.0000955
Mean motion
15.33456541 rev/d
Perigee alt
464.9 km
Apogee alt
466.2 km
Semi-major
6,843.6 km
B*
5.8625e-4
RAAN
279.1299°
Arg perigee
73.6225°
Mean anomaly
286.5123°
Rev number
1,921

§ Raw data

STARLINK-377461 69230U 26115V   26262.97773867  .00018906  00000+0  58625-3 0  99992 69230  97.2842 279.1299 0000955  73.6225 286.5123 15.33456541 19214

JSON: /api/v1/satellites/69230 · /tle

For live sub-satellite position, see the globe view (requires WebGL).

§ Visibility from observer

Set your observer location to see the next 7 days of passes ≥ 10°. The values pass through the URL so the page stays shareable.

No JS? Fill the form by hand. The geolocation button needs JavaScript.